This demonstration page uses our WeatherBlox Daily Observations layout. Learn more.

38.88101, -77.10428

Hourly Observations for January 25, 2020

Temp ( °F °C ) Dew Point ( °F °C ) Humidity (%) Winds ( mph kmh ) Pressure ( in mb ) Visibility ( mi km ) Precip ( " mm )
12:52 am 00:52 Cloudy with Light Rain 47 8.3 44 6.7 90 90 E 14 22 29.98 1015 6 9.65604 0.03 0.762
1:52 am 01:52 Cloudy with Light Rain 48 8.9 46 7.8 93 93 E 12 19 29.96 1015 6 9.65604 0.07 1.778
2:14 am 02:14 Cloudy with Rain 47 8.3 46 7.8 97 97 ENE 10 17 29.94 1014 4 6.43736 0.06 1.524
2:40 am 02:40 Cloudy with Rain 47 8.3 46 7.8 97 97 ENE 6 9 29.95 1014 5 8.0467 0.17 4.318
2:52 am 02:52 Cloudy with Heavy Rain 48 8.9 47 8.3 96 96 Calm 29.96 1014 5 8.0467 0.22 5.588
3:01 am 03:01 Cloudy with Heavy Rain 48 8.9 47 8.3 96 96 NW 3 6 29.94 1014 3 4.82802 0.08 2.032
3:22 am 03:22 Cloudy with Heavy Rain 45 7.2 45 7.2 100 100 ENE 13 20 29.91 1013 3 4.82802 0.26 6.604
3:52 am 03:52 Cloudy with Rain 48 8.9 47 8.3 96 96 E 15 24 29.88 1012 7 11.26538 0.31 7.874
4:32 am 04:32 Cloudy with Light Rain 50 10 48 8.9 93 93 VRB 6 9 29.87 1012 4 6.43736 0.11 2.794
4:40 am 04:40 Cloudy with Heavy Rain 49 9.4 48 8.9 97 97 W 12 19 29.88 1012 3 4.82802 0.14 3.556
4:43 am 04:43 Cloudy with Heavy Rain 49 9.4 48 8.9 97 97 W 16 26 29.89 1012 2.5 4.02335 0.18 4.572
4:52 am 04:52 Cloudy with Heavy Rain 49 9.4 47 8.3 93 93 WNW 12 19 29.89 1012 2.5 4.02335 0.26 6.604
5:06 am 05:06 Cloudy with Heavy Rain 50 10 48 8.9 93 93 NW 9 15 29.9 1013 4 6.43736 0.17 4.318
5:29 am 05:29 Cloudy with Rain 49 9.4 47 8.3 93 93 NNW 14 22 29.89 1012 4 6.43736 0.22 5.588
5:52 am 05:52 Cloudy with Light Rain 48 8.9 46 7.8 93 93 NNW 9 15 29.89 1012 7 11.26538 0.26 6.604
6:52 am 06:52 Cloudy with Light Rain 47 8.3 45 7.2 93 93 NE 10 17 29.86 1011 8 12.87472 0.05 1.27
7:52 am 07:52 Cloudy with Light Rain 47 8.3 45 7.2 93 93 NE 8 13 29.83 1010 10 16.0934 0.01 0.254
8:39 am 08:39 Cloudy 48 8.9 46 7.8 93 93 NNW 5 7 29.86 1011 10 16.0934 0.01 0.254
8:52 am 08:52 Cloudy with Light Rain 48 8.9 46 7.8 93 93 SW 3 6 29.89 1012 10 16.0934 0.02 0.508
9:52 am 09:52 Cloudy 49 9.4 46 7.8 90 90 W 6 9 29.87 1011 10 16.0934 0.001 0.001
10:52 am 10:52 Cloudy 50 10 47 8.3 89 89 W 6 9 29.87 1012 10 16.0934 0 0
11:05 am 11:05 Cloudy 50 10 46 7.8 86 86 W 7 11 29.87 1012 10 16.0934 0 0
11:52 am 11:52 Cloudy 49 9.4 46 7.8 90 90 W 9 15 29.86 1011 10 16.0934 0 0
12:19 pm 12:19 Cloudy 49 9.4 45 7.2 86 86 WNW 10 17 29.85 1011 10 16.0934 0 0
12:52 pm 12:52 Cloudy 50 10 45 7.2 83 83 W 7 11 29.85 1011 10 16.0934 0 0
1:08 pm 13:08 Cloudy 50 10 45 7.2 83 83 WNW 8 13 29.85 1011 10 16.0934 0 0
1:52 pm 13:52 Cloudy 51 10.6 44 6.7 77 77 WNW 15 24 29.84 1011 10 16.0934 0 0
2:52 pm 14:52 Cloudy with Light Rain 51 10.6 43 6.1 74 74 WNW 7 11 29.85 1011 10 16.0934 0.001 0.001
2:54 pm 14:54 Cloudy with Light Rain 51 10.6 43 6.1 74 74 NNW 7 11 29.85 1011 10 16.0934 0.001 0.001
3:52 pm 15:52 Mostly Cloudy 51 10.6 41 5 69 69 NW 13 20 29.85 1011 10 16.0934 0.001 0.001
4:52 pm 16:52 Mostly Cloudy 50 10 39 3.9 66 66 NW 12 19 29.86 1011 10 16.0934 0 0
5:52 pm 17:52 Mostly Cloudy 49 9.4 40 4.4 71 71 NNW 8 13 29.87 1012 10 16.0934 0 0
6:52 pm 18:52 Cloudy 47 8.3 39 3.9 74 74 N 8 13 29.88 1012 10 16.0934 0 0
7:52 pm 19:52 Mostly Cloudy 46 7.8 39 3.9 77 77 N 3 6 29.9 1012 10 16.0934 0 0
8:52 pm 20:52 Partly Cloudy 45 7.2 38 3.3 77 77 NNW 5 7 29.9 1013 10 16.0934 0 0
9:52 pm 21:52 Mostly Cloudy 44 6.7 37 2.8 76 76 NNW 7 11 29.91 1013 10 16.0934 0 0
10:52 pm 22:52 Mostly Cloudy 44 6.7 33 0.6 65 65 NW 12 19 29.91 1013 10 16.0934 0 0
11:52 pm 23:52 Cloudy 44 6.7 32 0 63 63 WNW 6 9 29.91 1013 10 16.0934 0 0

Powered by AerisWeather